Miscellaneous Local Product
Issued by NWS North Platte, NE

Home | Current Version | Previous Version | Text Only | Print | Product List | Glossary On
Versions: 1 2 3 4 5 6 7 8 9 10 11 12 13 14 15 16 17 18 19 20 21 22 23 24 25 26 27 28 29 30 31 32 33 34 35 36 37 38 39 40 41 42 43 44 45 46 47 48 49 50
000
AXUS43 KLBF 292310
MISLBF


WESTERN AND NORTH CENTRAL NEBRASKA HOURLY WEATHER ROUNDUP
NATIONAL WEATHER SERVICE NORTH PLATTE NE
600 PM CDT MON SEP 29 2014

***STATIONS NOT REPORTING VARIABLES SUCH AS SKY/WEATHER OR
PRESSURE ARE PROVIDED BY THE NEBRASKA DEPARTMENT OF
ROADS...RAWS...AND APRS NETWORKS...AND ARE NOT UNDER
NATIONAL WEATHER SERVICE QUALITY CONTROL***

...OBSERVATIONS IN AND NEAR THE EASTERN PANHANDLE OF NEBRASKA...

CITY           SKY/WX    TMP DP  RH WIND       PRES   REMARKS
PINE RIDGE     CLOUDY    60  57  89 NE7       29.89F
CHADRON        CLOUDY    53  53 100 N8        29.90F
ALLIANCE       CLOUDY    63  59  87 NE14      29.85F
SIDNEY         LGT RAIN  67  59  75 N15       29.80F
WHITECLAY        N/A     60  56  87 SW3         N/A
RUSHVILLE        N/A     58  55  88 E15         N/A
LISCO            N/A     74  59  60 N18         N/A
BIG SPRINGS      N/A     69  62  79 CALM        N/A
$$

...OBSERVATIONS IN NORTH CENTRAL NEBRASKA...

CITY           SKY/WX    TMP DP  RH WIND       PRES   REMARKS
VALENTINE      CLOUDY    67  61  81 NE10      29.91F
THEDFORD       PTSUNNY   78  54  42 SE23G30   29.87F
AINSWORTH      CLOUDY    74  55  51 SE9       29.90F
O`NEILL        SUNNY     80  56  42 SE12      29.92F
ORD            SUNNY     79  51  37 SE13      29.89F
BROKEN BOW     PTSUNNY   79  55  43 SE16G25   29.89F
SPRINGVIEW       N/A     72  62  69 E12G18      N/A
ROSE             N/A     81  60  47 E13         N/A
NEWPORT          N/A     74  66  75 E12         N/A
SARGENT          N/A     77  55  45 CALM        N/A
COMSTOCK         N/A     84  56  38 S15         N/A
CHAMBERS         N/A     76  52  43 E6          N/A
EWING            N/A     80  61  51 CALM        N/A
$$

...OBSERVATIONS IN SOUTHWEST NEBRASKA AND FAR NORTHEAST COLORADO...

CITY           SKY/WX    TMP DP  RH WIND       PRES   REMARKS
WRAY           FAIR      80  52  37 SE26G39   29.76F
HOLYOKE        FAIR      79  54  41 SE20G35   29.76F
IMPERIAL       MOSUNNY   79  52  38 SE23G30   29.79F
OGALLALA       PTSUNNY   77  55  46 SE20G26   29.78F
NORTH PLATTE   PTSUNNY   79  52  38 SE22G29   29.83F
MCCOOK         CLOUDY    80  52  37 SE20G29   29.83F
LEXINGTON      CLOUDY    79  54  42 SE16G22   29.88F
PAXTON           N/A     80  55  42 SE17        N/A
SUTHERLAND       N/A     81  49  32 SE18        N/A
BRADY            N/A     78  55  44 CALM        N/A
GOTHENBURG       N/A     79  50  35 SE12        N/A
CALLAWAY         N/A     76  56  50 SE17        N/A
$$

...SOME WEATHER OBSERVATIONS FROM AROUND THE REGION...

CITY           SKY/WX    TMP DP  RH WIND       PRES   REMARKS
DENVER         CLOUDY    55  52  89 NW10      29.85F THUNDER
LARAMIE        RAIN      44  43  96 N9        30.01S FOG
CHEYENNE       TSTM      54  48  80 E9        29.94R
SCOTTSBLUFF    PTSUNNY   65  57  75 NE3       29.85F
RAPID CITY     CLOUDY    51  49  92 E6        29.94F
PIERRE         CLOUDY    66  57  72 SE14      29.92F
WINNER         PTSUNNY   66  59  78 E10       29.92F
SIOUX FALLS    MOSUNNY   67  57  70 E16       30.00F
OMAHA          MOSUNNY   82  57  42 SE7       29.95F
GRAND ISLAND   SUNNY     80  53  39 SE10      29.92F
KANSAS CITY    MOSUNNY   80  62  54 S5        29.97F
WICHITA        MOSUNNY   83  55  38 SE12      29.93F
HAYS           MOSUNNY   81  54  39 S18       29.89F
LIBERAL        MOSUNNY   81  52  36 S16G28    29.90S
GOODLAND       SUNNY     80  52  37 S28G47    29.80F
$$



USA.gov is the U.S. government's official web portal to all federal, state and local government web resources and services.